Theta_e
320 315 315 318 324 326 329 331 328 326 319 319 326 328 326 327 327 327 327 326 328 330 332 332 332 332 330 326 321 321 325 330 334 336 338 337 338 338 338 338 338 338 337 336 335 334 334 333 332 331 331 330 326 321 320 322 323 325 328 330 330 331 334 334 332 324 317 315 313 312 312 312 312 312 312 311 312 312 312 312 311 314 315 311 311
319 315 315 317 323 324 327 329 327 325 320 319 324 328 327 327 328 326 326 326 329 330 331 331 331 330 327 322 320 324 331 335 337 339 339 338 339 338 338 338 339 338 336 335 334 333 333 333 332 332 331 330 327 321 321 322 323 325 327 329 329 330 330 330 328 321 317 315 313 312 312 312 312 311 312 312 311 312 312 312 311 314 315 311 311
317 315 315 316 321 323 327 328 326 325 320 318 322 326 327 327 327 326 326 327 329 330 330 330 329 327 322 319 321 328 334 337 338 339 339 339 339 339 339 339 338 336 334 333 332 332 332 332 332 332 331 330 327 323 323 324 324 324 326 328 327 326 324 324 322 319 316 313 312 311 312 312 311 312 312 312 312 312 311 312 311 312 312 311 312
316 315 314 316 321 323 326 327 325 324 321 318 319 324 326 326 327 326 325 327 329 329 329 328 326 323 317 317 321 329 335 337 338 339 340 340 340 340 339 337 335 332 332 331 331 331 331 331 331 331 330 329 327 324 325 325 324 324 324 325 323 321 320 319 317 316 314 313 312 314 320 318 312 312 312 312 312 312 311 312 311 311 311 311 312
316 315 316 317 321 323 325 326 325 324 321 319 318 321 324 326 326 325 325 327 329 329 328 327 324 319 314 315 320 329 335 337 338 339 340 339 339 338 336 333 332 331 331 331 331 330 329 327 325 325 324 325 325 326 326 326 324 323 322 322 320 320 320 319 317 315 314 314 313 320 329 326 316 312 312 312 312 312 312 312 312 312 312 311 311
315 315 319 320 321 322 324 324 324 323 320 319 318 319 322 324 324 324 324 327 329 328 327 326 321 314 311 313 317 326 335 338 339 339 338 338 338 336 332 331 331 331 331 331 330 327 323 318 316 315 316 319 323 326 328 327 325 322 320 320 320 323 323 321 318 316 317 317 320 327 331 330 324 315 311 313 312 312 312 312 312 311 312 311 312
314 316 321 325 325 320 321 324 323 323 320 319 319 318 320 322 323 323 324 326 328 327 327 324 317 311 310 311 314 322 332 338 339 338 336 336 336 333 331 331 331 330 330 328 325 320 315 312 311 310 311 315 320 325 329 329 326 324 321 322 324 326 325 322 320 321 320 322 328 332 332 332 329 321 314 313 312 312 312 312 312 312 312 312 312
314 317 326 333 330 318 320 323 323 323 320 320 320 319 319 321 322 322 325 327 327 326 326 322 314 310 310 310 311 316 326 335 338 337 335 334 333 332 331 330 328 327 324 321 317 313 311 311 311 310 310 314 320 326 329 329 328 327 325 326 326 326 325 323 324 324 323 325 331 333 332 332 332 328 319 316 315 313 314 314 314 315 315 315 314
314 318 330 336 331 318 320 322 324 324 321 321 321 319 319 320 321 322 325 327 327 326 324 319 313 311 310 309 309 311 318 330 337 338 336 333 329 329 328 326 324 320 317 314 312 311 312 312 311 311 312 316 322 327 329 329 328 326 325 325 326 326 325 325 325 325 327 330 333 332 331 331 333 332 324 320 319 317 317 317 317 317 317 317 316
316 320 333 337 328 317 320 322 324 324 322 322 322 320 319 319 321 324 326 327 326 325 322 317 312 310 309 309 309 309 311 320 332 335 335 332 327 326 325 322 319 315 312 311 311 312 313 313 313 312 313 318 324 327 328 328 327 326 325 325 326 326 325 326 327 328 331 333 333 333 330 327 331 333 327 324 322 321 321 320 321 321 319 317 317
317 319 332 336 328 318 319 322 325 325 322 322 323 321 318 319 323 326 327 327 325 324 321 314 311 309 309 309 309 309 308 311 320 326 328 328 326 324 322 320 316 312 310 310 311 312 314 315 314 314 315 319 325 328 328 329 327 326 325 325 325 325 325 325 328 332 333 333 333 333 331 327 330 333 328 327 326 325 324 324 325 324 322 320 318
317 318 332 337 326 318 320 322 324 324 323 322 324 321 318 319 325 328 327 326 325 322 318 312 310 309 309 309 309 309 309 309 311 315 319 322 324 323 320 317 313 310 310 310 311 311 314 316 316 316 318 321 325 327 327 328 327 326 326 325 325 324 325 324 328 334 332 333 332 331 333 332 333 331 327 328 327 327 327 326 326 325 325 324 323
315 319 332 334 321 318 321 322 324 324 323 322 323 321 318 321 326 329 327 326 324 320 315 311 309 309 309 309 309 309 309 309 309 310 313 317 320 320 317 314 312 310 310 310 310 310 312 315 317 318 319 322 325 327 326 326 325 325 326 325 326 325 325 324 327 333 332 332 332 331 333 332 332 328 326 326 324 325 326 327 327 326 326 326 326
315 319 331 330 317 319 321 322 324 325 324 322 323 321 319 323 327 328 327 326 324 319 312 309 309 309 309 309 310 310 310 310 310 310 311 313 316 317 315 313 312 310 310 311 311 310 311 313 315 318 320 322 324 326 326 325 325 324 324 324 326 326 327 326 327 331 331 332 331 331 332 331 329 325 325 325 321 320 322 325 326 326 327 328 328
315 317 329 330 317 319 322 324 325 325 326 324 323 321 321 325 327 327 328 327 324 317 310 309 310 309 310 310 310 310 311 311 311 311 311 312 314 315 314 314 312 311 311 311 311 311 311 311 312 314 317 320 321 323 323 324 324 324 324 324 324 325 327 328 330 331 330 331 331 330 331 332 329 324 324 323 321 319 318 322 325 326 327 328 330
315 314 326 329 319 318 322 325 326 327 327 325 323 320 323 327 326 328 328 327 322 313 309 309 309 309 310 310 311 311 311 312 312 312 312 312 313 313 313 313 312 311 311 311 312 312 312 312 311 312 313 315 317 318 319 320 321 322 323 322 322 322 323 325 330 332 330 330 329 329 330 332 329 325 325 322 321 321 320 321 323 325 327 329 330
315 315 324 330 325 320 322 327 327 328 328 326 324 320 324 328 327 328 327 325 318 310 308 309 309 309 310 310 311 312 312 312 312 313 313 313 313 312 312 311 311 311 311 312 312 312 313 312 312 312 312 312 313 313 314 315 316 317 317 318 317 317 318 317 324 331 332 329 326 329 331 331 328 325 324 323 323 324 324 324 324 326 329 330 331
314 318 326 331 331 328 328 333 331 330 332 328 325 322 325 330 329 329 327 324 315 309 309 309 310 310 310 311 311 312 312 313 313 313 313 314 314 313 313 313 312 312 312 313 314 314 314 314 314 314 314 314 314 314 314 315 315 315 315 315 315 315 315 313 321 330 332 330 328 331 332 330 326 324 324 323 325 326 327 327 327 328 330 331 331
314 321 332 334 334 335 335 337 335 335 336 334 332 329 329 331 330 330 327 322 313 308 309 310 311 310 311 311 311 312 312 312 312 313 313 313 313 314 314 314 314 314 314 314 314 314 314 314 314 314 314 314 314 314 314 315 316 317 316 316 316 316 317 319 326 331 330 331 332 332 332 329 325 324 325 325 327 328 328 328 328 329 330 330 330
315 322 335 338 335 337 338 338 338 338 338 336 336 335 333 332 331 331 328 321 311 308 310 310 310 310 311 311 312 312 312 312 312 312 312 312 312 313 313 313 313 313 312 313 313 315 316 317 318 318 318 318 318 320 321 322 323 324 324 325 325 325 328 331 333 333 332 333 333 332 332 329 326 326 327 328 330 330 330 330 329 330 331 331 331
319 327 337 340 338 338 339 339 339 339 338 337 336 337 336 333 332 331 328 319 310 308 310 309 311 311 310 311 312 311 312 311 311 312 312 312 312 311 312 312 312 314 316 319 322 324 326 327 327 328 328 328 328 330 331 330 330 330 331 331 331 334 336 335 334 335 335 335 335 334 333 332 330 331 331 332 332 332 332 332 331 332 332 333 333
329 336 339 340 339 339 339 339 339 338 338 337 336 338 336 334 334 331 327 318 309 308 309 310 310 309 311 313 313 313 316 315 314 315 313 312 313 313 314 316 320 324 327 329 329 329 329 330 331 331 331 331 331 333 334 333 332 330 329 329 332 336 335 333 333 335 335 335 336 334 333 332 331 331 331 332 331 331 331 331 332 332 332 333 334
337 340 340 340 340 339 339 338 339 338 338 337 336 338 337 336 336 331 326 316 308 310 310 312 314 313 314 314 315 317 323 326 321 316 314 314 318 320 323 326 329 330 330 331 330 329 328 329 329 328 328 329 332 335 335 335 334 331 330 331 334 334 332 332 333 334 334 334 335 332 329 328 327 328 328 328 328 329 329 329 330 331 332 332 332
340 341 341 340 340 339 339 338 338 338 337 337 336 338 337 336 337 332 326 314 309 316 316 319 322 318 314 316 321 321 324 329 322 317 321 323 326 330 332 332 331 330 330 331 331 328 328 330 329 327 329 332 333 334 333 334 334 332 333 333 333 332 331 333 333 333 333 333 333 328 325 324 324 324 324 325 326 326 326 327 329 330 330 330 330
341 341 341 340 340 340 339 338 338 338 337 336 336 338 337 337 338 334 328 317 313 321 321 322 323 318 317 322 325 322 325 331 326 324 327 329 333 336 335 332 330 330 330 330 330 327 330 334 333 332 333 333 332 331 329 331 332 332 333 331 330 331 332 332 332 332 331 331 330 324 322 323 322 323 323 324 324 325 326 327 328 328 329 329 329
341 341 341 341 340 340 339 339 338 337 337 337 336 338 337 337 338 335 332 322 317 324 325 325 326 325 328 328 324 321 329 335 330 327 329 332 336 337 334 332 330 330 329 330 329 327 331 333 332 331 331 331 332 330 329 328 329 330 333 331 329 330 332 331 331 331 330 330 327 321 321 322 323 325 325 326 327 327 328 329 329 329 330 330 330
341 341 341 341 340 339 338 338 337 336 336 336 336 338 336 337 338 336 334 328 322 325 328 330 331 331 332 331 329 330 334 334 328 327 331 336 336 334 334 331 329 329 327 329 329 328 329 330 329 327 328 330 332 331 331 331 329 329 332 332 331 331 331 330 330 329 329 331 327 322 323 325 326 327 327 327 328 328 329 329 330 331 330 330 331
341 341 341 340 339 339 338 337 337 336 336 336 335 337 336 337 337 334 334 331 327 327 331 332 332 333 332 331 333 335 334 330 327 329 333 337 335 333 333 329 329 328 326 328 329 328 327 327 325 325 328 330 331 331 330 330 331 331 331 331 331 330 329 329 330 329 329 331 330 327 326 327 326 326 326 326 326 327 328 329 330 330 330 330 330
341 341 340 340 339 339 338 337 336 336 336 335 335 337 336 338 337 335 334 331 330 331 332 332 331 333 331 330 334 334 332 329 329 333 336 338 336 334 331 328 328 327 326 327 327 326 326 326 324 326 330 330 331 330 327 328 331 331 331 330 330 330 330 330 331 331 331 331 331 329 327 326 325 325 325 325 325 325 326 327 327 328 328 329 329
341 341 340 339 339 339 338 337 336 336 336 334 335 337 336 338 337 336 335 330 331 334 332 332 332 333 330 330 332 330 330 330 331 335 338 338 336 334 329 327 328 326 326 325 324 324 323 324 323 325 329 329 330 329 326 328 330 330 331 330 331 331 331 332 331 331 331 331 330 329 327 326 325 324 324 323 323 324 324 325 325 326 326 326 327
342 341 340 339 339 338 338 337 336 336 335 334 336 336 336 337 336 336 334 331 332 333 332 332 333 334 332 331 330 327 329 331 332 336 339 337 335 332 327 327 329 328 326 325 323 320 320 323 320 318 321 324 329 328 328 329 331 331 331 331 331 331 331 331 331 331 331 331 330 329 329 327 325 323 323 323 323 323 324 324 324 325 325 325 326
342 341 339 338 338 338 338 337 337 336 334 334 335 336 336 336 335 335 335 333 332 331 331 331 332 332 330 329 329 328 330 332 335 338 338 336 333 328 326 329 332 330 325 326 326 323 325 327 320 315 318 323 328 329 329 331 332 332 330 331 331 330 331 330 330 331 330 330 330 329 329 329 327 324 323 323 323 324 324 324 325 325 325 325 325
342 341 338 335 335 336 337 337 337 336 334 334 334 336 336 335 335 334 335 334 329 329 331 330 333 333 328 327 329 329 333 336 337 337 337 335 330 326 328 332 333 331 327 328 330 330 331 328 321 322 324 325 330 330 330 332 331 331 331 330 331 330 330 329 329 330 330 330 329 329 328 328 327 325 324 323 323 324 324 324 325 325 325 325 324
342 341 338 336 334 334 336 336 336 336 333 334 334 335 335 335 335 334 334 334 328 328 332 332 334 335 329 326 327 331 334 336 337 336 336 333 328 327 331 333 332 330 330 330 332 332 330 326 322 325 329 329 331 331 330 331 330 331 331 330 331 330 329 329 329 329 329 329 328 327 326 325 324 324 324 324 323 323 324 324 324 325 325 324 324
341 341 340 339 335 330 333 334 335 336 333 333 334 334 335 334 335 334 332 331 327 328 331 332 334 334 330 326 327 331 334 336 337 337 336 333 330 331 332 332 330 329 331 331 331 331 327 325 322 322 329 331 330 331 330 330 331 330 330 330 330 330 329 329 329 329 328 328 327 325 324 322 322 322 323 324 323 323 323 323 323 324 324 324 324
342 342 341 340 336 329 331 334 334 336 333 331 332 334 335 334 334 334 330 328 327 330 331 332 334 333 331 328 328 332 335 337 337 337 335 334 332 333 331 330 330 331 332 330 330 329 324 324 325 321 327 331 330 330 330 330 330 330 330 330 330 329 329 328 328 328 327 326 325 323 322 321 321 321 321 322 323 322 322 321 322 322 323 324 323
343 344 342 341 337 332 334 336 335 335 334 331 331 334 334 333 335 334 330 327 328 331 332 332 334 334 332 331 332 334 336 337 337 336 335 334 333 333 331 331 333 332 331 329 326 325 322 324 327 325 325 329 330 330 329 330 330 330 330 329 330 329 328 327 327 327 326 325 324 323 322 321 321 321 321 321 322 321 320 319 320 320 321 322 322
344 343 343 341 338 336 337 337 336 335 333 331 331 333 333 333 334 333 331 328 328 331 333 332 333 333 332 332 334 335 337 338 336 334 334 333 331 331 332 332 333 331 327 325 323 322 321 324 328 327 324 326 329 329 328 329 329 329 330 329 329 328 327 326 326 326 326 325 323 322 321 321 320 320 320 321 320 319 318 318 318 318 319 319 319
344 343 342 341 338 338 338 336 336 335 333 331 330 332 333 333 333 334 332 329 329 332 332 332 332 332 332 333 335 336 338 337 334 333 333 332 330 331 333 332 332 328 321 321 324 322 320 325 328 327 327 327 325 325 325 327 329 329 329 329 329 327 327 326 325 325 325 324 323 322 321 321 320 319 318 317 316 315 315 316 316 316 317 317 317
344 342 341 341 339 339 338 336 335 335 332 329 330 332 334 334 334 334 333 331 331 332 331 332 332 332 333 333 334 336 337 335 332 332 332 330 331 333 334 331 327 322 316 318 321 319 319 326 327 326 328 328 325 321 320 324 329 329 329 329 329 327 326 325 325 325 324 324 323 322 321 320 320 318 315 312 312 311 312 314 314 315 315 315 315
343 342 341 340 340 339 338 337 336 334 329 328 330 332 334 334 335 334 333 331 331 331 331 332 332 332 333 333 335 337 336 334 332 331 330 329 332 335 334 331 324 317 317 318 317 316 320 326 328 327 326 326 324 319 318 325 328 328 329 329 328 327 326 325 324 323 323 323 323 322 320 319 318 315 312 310 309 309 310 311 312 312 313 313 312
343 342 341 341 340 339 338 337 336 333 327 326 329 330 332 333 334 334 332 330 330 331 331 330 330 331 333 334 335 337 337 334 331 329 329 331 334 335 334 330 322 318 321 322 320 321 324 326 327 327 326 325 323 318 317 324 327 326 326 328 329 327 326 326 324 322 321 322 322 321 320 319 316 312 309 308 307 307 307 308 309 309 309 309 308
343 342 342 341 340 339 338 336 334 330 324 325 329 330 332 334 333 332 330 329 330 331 331 330 330 331 332 334 336 337 337 334 331 331 331 333 334 334 331 327 322 322 326 327 326 325 325 326 325 325 326 327 324 318 316 317 322 326 327 326 326 327 328 326 323 323 322 321 321 320 319 319 316 310 307 306 304 304 304 304 305 305 305 306 304
343 342 342 341 339 339 337 334 332 328 326 329 331 330 331 332 332 330 329 330 332 332 332 331 330 331 332 334 336 337 336 333 332 333 334 333 333 332 329 326 323 324 327 327 325 324 324 325 324 322 323 328 326 319 315 314 316 322 326 326 324 325 326 324 323 323 322 320 320 319 318 318 315 309 303 302 302 301 301 300 301 301 300 301 300
343 342 342 340 340 339 336 332 333 333 332 332 331 330 330 330 329 329 330 331 332 332 332 332 331 332 333 334 336 337 335 333 333 334 334 333 331 329 326 325 325 324 325 324 321 320 322 323 323 322 320 323 325 321 316 313 312 315 320 324 325 325 323 320 322 324 323 320 319 319 317 316 316 308 299 299 299 299 299 298 298 298 298 299 298
343 342 342 341 341 339 335 333 336 336 334 330 327 328 329 328 327 329 332 332 332 332 332 332 331 331 333 334 335 336 334 333 333 334 334 332 330 326 324 325 325 323 323 320 318 319 321 320 319 320 317 316 321 323 321 318 314 311 313 315 317 319 320 321 322 321 322 321 320 320 315 315 317 307 297 299 299 298 298 298 298 298 297 298 297
343 342 342 342 341 340 336 336 337 335 332 328 325 326 326 323 323 328 331 332 332 333 332 332 332 332 333 334 336 336 334 332 333 333 333 332 330 325 322 324 324 322 320 316 316 318 319 317 316 317 316 314 317 320 320 322 320 314 311 312 311 310 310 314 318 319 321 320 320 320 315 314 315 304 297 299 298 298 299 298 299 298 298 298 298
342 342 342 342 341 341 338 336 337 336 333 330 327 326 324 320 323 329 331 331 332 334 333 333 334 332 332 334 336 335 333 332 332 332 332 330 328 324 320 323 323 320 317 315 315 317 316 316 315 314 314 313 314 315 315 317 319 317 315 316 315 313 309 307 312 317 319 319 319 318 314 316 315 304 297 299 298 298 299 298 299 299 299 299 298
342 342 341 342 341 339 336 335 336 337 335 332 327 326 325 323 327 331 331 332 333 333 333 334 333 331 332 335 335 334 333 332 332 332 331 328 326 322 320 323 323 318 315 315 315 316 315 314 314 313 313 312 312 312 312 311 312 314 317 319 319 318 316 312 312 315 317 316 317 317 314 316 317 306 298 299 299 299 299 299 299 299 299 299 299
341 342 342 341 338 337 336 335 336 337 336 333 330 329 328 327 330 333 333 334 334 333 334 333 331 330 334 335 334 334 332 331 332 331 329 326 322 320 321 322 320 316 315 316 315 315 314 313 313 312 312 312 311 310 310 308 306 305 309 315 317 317 319 317 315 315 315 315 316 316 313 315 315 307 300 299 300 300 299 300 299 300 300 299 300
340 342 342 339 336 335 336 336 337 336 336 335 333 332 330 329 332 335 335 334 333 333 334 332 330 332 335 335 334 333 332 331 332 330 327 324 319 319 321 320 317 316 315 315 315 314 313 312 312 312 312 311 310 308 306 304 302 301 301 305 308 310 313 314 313 314 314 314 314 312 312 313 310 306 303 301 301 300 299 300 300 299 300 300 301
Wind_Speed
20 19 17 17 20 19 18 17 16 14 14 16 16 14 13 12 12 12 10 10 9 9 9 8 8 7 6 6 8 11 13 15 15 15 15 15 14 14 14 13 12 12 11 10 9 9 8 8 7 6 6 6 9 9 9 9 8 7 7 7 8 9 9 10 9 9 11 11 11 10 9 8 8 8 8 7 7 8 8 8 8 9 8 8 9
23 21 18 18 20 20 19 17 16 15 15 16 17 15 14 13 12 12 11 10 10 9 9 8 7 6 6 7 10 13 15 15 15 14 14 13 13 13 13 12 11 11 10 9 8 8 7 6 6 5 5 6 8 9 9 10 10 10 9 9 9 8 8 9 9 9 9 9 9 9 9 8 7 7 7 6 7 7 7 7 8 8 6 7 8
24 23 19 19 20 20 19 18 17 16 16 16 17 16 15 13 12 11 11 10 10 10 9 8 7 6 7 9 11 14 14 14 14 14 13 12 12 12 12 11 10 10 9 8 7 6 6 5 5 4 5 6 8 8 8 10 10 10 10 10 9 8 8 9 9 9 8 9 9 9 9 8 7 6 6 6 6 6 6 6 6 6 6 6 7
24 23 21 20 20 20 19 18 17 16 16 17 17 16 15 14 13 11 11 11 10 10 9 8 7 7 8 10 12 13 14 13 14 13 13 12 11 11 10 9 9 9 8 7 6 5 4 4 4 3 3 4 6 7 7 9 10 10 10 9 8 9 9 9 9 8 8 9 8 9 9 7 6 6 5 5 6 6 6 6 6 6 6 6 6
25 24 22 22 21 20 19 18 17 17 16 16 17 17 16 14 13 12 11 11 11 10 9 8 7 8 9 11 12 13 13 12 13 13 12 11 10 9 9 8 8 8 7 6 4 3 3 2 3 2 3 3 4 6 7 8 8 9 9 9 9 9 9 8 8 8 9 9 9 10 7 5 6 6 5 4 4 5 5 5 5 5 6 6 6
26 24 22 23 22 21 20 19 17 17 16 16 16 17 16 15 13 12 11 11 10 10 9 8 8 9 10 11 12 13 13 12 12 11 10 10 9 8 8 8 7 7 6 4 3 2 2 3 3 4 4 4 5 6 7 7 8 8 8 8 8 8 7 7 7 8 8 8 8 7 5 5 6 6 5 4 3 4 4 4 5 5 5 6 6
26 24 23 22 22 22 20 19 18 17 16 16 16 16 17 15 14 12 11 11 10 10 9 9 9 9 10 11 11 13 13 11 11 10 9 8 8 8 8 7 6 5 4 3 2 2 3 4 5 5 6 7 7 7 8 8 8 7 8 8 7 7 6 7 7 7 7 6 6 4 3 4 4 6 6 4 4 4 4 4 4 5 5 5 6
27 24 21 19 20 23 21 20 18 17 17 16 15 16 16 16 15 13 11 11 10 10 10 9 9 9 10 10 10 11 12 11 10 9 8 7 7 7 7 6 5 4 3 3 3 3 4 5 6 7 8 8 9 9 9 8 8 8 8 7 7 7 6 7 7 7 6 6 4 2 2 2 4 5 5 5 5 4 4 4 4 4 5 4 5
27 24 20 17 20 24 22 20 19 17 17 16 15 15 16 16 15 13 12 11 11 10 10 10 10 10 9 9 10 10 11 11 10 9 8 7 7 7 6 5 5 4 4 4 4 4 5 6 7 8 8 9 9 9 8 8 8 7 8 7 7 6 6 6 6 6 5 4 3 2 2 1 3 4 4 5 5 5 5 5 5 6 5 5 4
27 24 19 17 20 24 22 21 19 18 17 16 15 15 16 16 15 13 12 11 11 10 10 10 10 10 10 9 9 9 10 10 10 9 8 7 7 6 6 5 5 5 5 5 5 5 6 7 7 8 8 8 8 8 7 6 6 6 6 6 6 5 5 5 6 7 5 3 2 2 2 2 2 2 4 5 5 5 5 6 7 7 6 6 5
27 24 19 16 21 24 22 21 20 18 17 16 15 15 15 15 15 13 12 12 11 10 10 10 10 11 11 10 9 9 10 10 10 8 8 7 7 7 6 6 6 6 5 5 5 5 5 6 7 7 8 8 7 6 5 4 4 4 4 4 4 4 4 4 7 6 5 4 3 2 3 4 3 2 4 5 5 5 5 6 6 6 6 6 6
28 24 18 15 21 24 22 22 20 19 18 16 16 15 15 15 15 14 13 12 11 11 10 10 10 11 11 11 10 10 10 10 10 9 8 7 7 7 7 7 6 6 5 5 5 5 4 5 5 6 7 7 6 5 4 3 2 1 1 2 2 3 3 4 6 4 4 4 4 3 3 4 3 4 5 5 6 6 5 5 5 5 5 5 5
28 24 17 16 22 24 22 22 20 19 18 17 16 15 16 16 15 14 13 12 11 11 11 11 11 11 11 11 11 10 11 10 10 10 9 8 8 8 8 8 7 6 5 5 5 4 4 4 4 4 5 5 5 4 3 2 2 1 2 2 2 3 4 4 5 4 4 4 5 5 4 5 5 7 8 8 8 7 6 6 5 5 5 5 5
28 23 17 17 22 24 22 22 21 20 18 17 16 16 16 16 15 13 12 11 11 10 11 11 11 11 10 11 11 11 11 11 11 10 10 10 9 9 8 8 7 7 6 5 5 4 4 3 3 3 3 3 3 3 3 3 3 3 4 4 5 5 5 6 7 5 5 6 6 6 6 7 8 10 11 11 11 10 9 8 7 7 6 6 5
27 24 18 17 21 24 23 22 21 20 18 17 16 16 16 16 14 13 12 11 10 10 11 11 11 10 10 11 11 12 11 11 11 10 10 10 10 10 9 8 7 7 6 6 5 4 3 3 3 2 2 2 3 3 4 4 5 6 6 7 7 7 7 7 6 6 7 7 8 9 8 9 12 13 13 13 13 13 12 11 11 10 8 7 6
25 22 18 17 21 23 23 23 21 20 18 17 15 16 16 15 13 12 11 10 10 10 11 10 10 10 11 11 11 11 12 11 11 10 10 10 10 9 8 8 7 7 7 6 5 4 3 2 2 1 1 2 3 4 5 6 7 8 8 9 10 10 11 9 7 8 8 8 9 11 9 10 15 16 15 15 15 14 14 13 13 12 11 9 8
23 20 18 17 19 22 24 23 22 20 18 17 15 16 16 13 12 12 11 10 10 10 11 10 10 11 12 12 11 11 11 11 10 10 9 9 8 8 8 7 7 7 7 6 5 4 3 2 1 0 1 2 3 5 6 7 8 9 10 10 11 11 12 12 11 9 9 12 12 11 9 10 16 17 16 16 15 15 14 14 13 12 11 10 10
23 20 18 16 17 19 21 20 21 20 18 16 15 16 15 12 12 12 11 10 10 11 11 10 11 11 12 11 11 11 10 10 10 9 9 8 7 7 7 7 6 6 6 5 4 4 2 1 1 1 2 3 4 5 6 7 9 10 11 11 12 12 13 13 11 9 10 13 13 9 10 14 17 17 17 17 16 16 15 14 14 13 12 12 12
23 20 18 16 16 17 17 17 18 19 17 16 15 15 14 13 12 12 11 10 10 11 11 11 11 11 11 11 10 10 9 9 9 8 7 7 6 6 6 5 5 4 3 3 2 1 1 1 1 2 3 4 4 5 6 7 8 10 11 12 12 12 13 11 9 9 10 11 11 10 12 16 17 18 18 18 18 17 17 16 15 15 15 15 15
23 21 18 16 17 18 17 16 16 17 16 15 15 15 14 14 13 12 11 11 11 12 12 12 11 11 11 11 10 10 9 8 8 7 6 5 5 5 4 4 3 2 1 1 1 1 2 3 3 3 4 5 5 6 6 7 8 9 10 11 11 12 11 9 9 9 9 10 12 12 15 17 17 18 19 19 19 19 18 18 17 18 18 18 18
24 20 17 16 17 17 17 16 16 17 16 16 15 15 14 14 14 13 12 11 12 12 12 12 11 11 11 11 10 10 9 8 8 7 6 5 4 3 3 2 2 1 2 2 3 3 4 5 5 5 5 6 7 7 7 8 8 9 9 10 11 11 10 10 11 10 10 10 11 13 15 16 16 18 19 19 19 19 19 19 19 20 20 20 20
22 17 16 17 16 17 17 16 16 18 17 16 16 16 15 14 14 14 12 12 13 13 13 13 12 11 11 10 9 9 8 7 7 6 5 4 3 2 2 2 2 2 3 4 5 6 6 7 7 7 7 7 8 7 8 9 9 9 9 9 9 9 9 12 11 10 10 10 11 14 15 15 16 17 18 18 19 19 19 19 19 20 20 20 20
21 16 16 17 15 16 17 16 17 19 18 17 17 16 15 14 13 13 13 13 14 14 14 13 12 12 10 10 9 8 7 6 6 5 4 3 2 2 2 2 3 4 5 6 7 8 9 8 8 9 8 8 8 7 7 8 9 10 10 9 8 8 9 11 10 9 10 10 12 15 15 16 16 17 17 18 18 19 19 19 19 19 19 20 20
19 17 16 16 15 16 17 18 18 20 20 18 17 15 15 14 12 13 13 14 15 13 13 12 11 11 11 9 8 7 6 5 6 5 4 3 2 2 3 4 4 5 6 6 7 9 10 9 9 10 9 8 7 7 6 6 8 9 9 8 8 9 9 9 9 9 10 10 13 16 15 16 17 17 18 18 18 19 19 19 19 20 20 20 21
17 17 16 15 16 16 17 18 19 20 19 19 18 16 16 14 12 12 12 15 15 12 11 11 10 11 10 8 7 7 6 5 5 5 4 1 1 1 2 3 4 5 6 6 7 8 9 8 8 9 8 8 8 9 9 8 8 9 9 10 9 9 9 8 9 10 10 10 15 18 16 17 17 17 18 18 18 19 19 19 19 20 20 21 21
18 18 17 15 16 16 16 18 19 20 19 19 18 17 17 14 12 12 11 14 15 11 10 9 9 10 9 7 7 7 6 4 4 3 2 2 1 0 1 3 4 4 5 5 6 7 7 7 8 8 8 8 8 10 10 9 9 8 8 10 10 8 8 9 8 10 10 10 15 17 15 16 16 16 16 16 17 17 18 18 19 19 19 20 20
18 18 18 15 15 17 16 17 19 20 20 19 19 17 17 14 12 13 11 13 14 11 10 9 9 9 8 8 7 6 5 5 4 2 2 2 1 1 0 2 3 4 5 5 6 6 7 7 9 10 10 8 8 8 8 9 9 7 6 8 9 8 8 9 8 9 9 8 12 13 13 15 15 15 15 14 15 15 15 16 17 18 18 19 18
18 17 18 15 15 17 17 18 18 19 19 19 20 17 16 15 13 13 11 11 12 11 10 10 9 8 8 8 7 6 5 4 3 2 2 1 1 1 0 2 3 3 4 4 5 7 8 8 9 10 9 8 8 8 8 8 8 7 6 7 7 8 8 8 8 8 8 7 9 11 13 14 14 14 14 14 14 14 15 15 15 16 17 18 18
18 17 17 15 15 17 17 18 18 19 19 19 19 17 16 15 13 12 12 11 11 11 11 10 9 8 8 8 7 6 6 4 3 2 2 1 2 1 1 2 2 3 5 5 5 7 8 9 10 9 9 9 9 10 10 7 6 6 6 6 6 7 7 7 7 7 8 8 8 11 13 13 13 12 12 13 14 14 15 15 16 16 16 17 17
17 17 17 15 15 16 16 18 18 18 19 19 17 16 17 15 13 12 12 12 12 11 11 10 9 8 8 8 7 6 6 5 3 3 2 2 2 0 1 2 3 4 5 5 5 6 6 8 9 9 9 9 9 9 9 6 5 5 5 5 5 5 6 6 6 7 8 8 8 10 12 11 11 11 12 13 13 14 14 15 15 15 16 16 16
16 18 17 16 16 16 16 17 18 19 18 18 18 17 17 16 14 13 11 12 13 12 11 10 9 8 7 7 7 7 6 5 4 3 2 2 2 1 2 2 3 5 5 5 5 5 5 7 8 9 9 8 8 8 7 6 5 4 5 5 5 5 5 6 6 6 7 8 8 9 11 11 11 11 12 13 13 13 13 14 14 14 15 15 15
17 17 17 18 16 16 17 17 18 19 18 18 19 18 17 17 15 13 11 13 13 12 11 11 9 8 8 8 8 8 6 6 5 4 3 3 2 1 2 3 3 5 6 5 5 5 6 7 8 10 9 8 7 7 6 6 5 4 4 4 4 5 5 5 5 6 7 7 8 9 9 10 11 12 13 13 13 13 13 13 14 14 14 14 14
16 16 18 20 18 16 16 16 17 19 19 18 19 18 16 16 14 13 13 13 14 12 11 11 9 8 9 10 9 8 6 5 5 4 4 2 1 2 2 3 4 5 5 4 5 6 5 6 8 9 9 8 7 6 6 5 5 4 4 4 4 4 4 4 5 6 6 5 7 7 7 8 10 13 14 15 14 14 14 14 14 15 14 15 14
16 18 20 21 19 16 14 15 17 20 20 19 19 18 17 16 14 14 13 12 13 13 12 11 10 9 9 9 9 8 7 6 5 4 3 2 1 2 2 3 5 5 4 4 5 6 6 6 8 8 7 7 6 6 5 4 4 4 3 4 3 3 3 3 4 5 5 5 6 7 8 9 10 12 13 14 14 14 15 15 15 15 15 15 15
20 22 22 20 20 18 14 14 18 20 21 20 20 19 17 17 15 15 14 13 13 14 13 12 10 9 9 9 9 8 7 6 5 4 2 2 1 2 2 4 6 5 4 4 5 6 7 7 7 8 7 6 6 6 5 5 4 3 3 3 2 3 3 4 5 4 4 6 7 8 9 11 12 13 12 12 13 14 15 16 15 15 16 15 15
25 24 22 21 20 20 15 14 17 19 20 21 21 19 18 17 15 14 15 14 15 15 13 12 11 10 9 9 8 7 6 6 5 4 2 1 1 2 3 5 6 5 4 5 5 6 7 6 6 8 7 5 6 6 5 5 4 3 3 2 2 3 3 4 5 5 5 7 7 8 10 12 13 14 13 12 12 14 16 17 16 16 15 15 15
26 23 22 22 21 20 16 15 17 18 18 19 20 19 18 17 15 14 14 14 16 15 13 13 11 10 9 8 8 7 7 6 5 4 2 1 1 2 3 6 5 4 4 5 6 6 7 7 6 6 6 5 6 5 5 5 4 3 2 2 2 3 3 4 5 5 5 6 7 8 9 10 12 12 13 14 14 15 18 18 17 15 14 14 15
27 23 21 21 20 17 16 15 16 16 16 17 18 18 17 16 15 14 14 15 16 15 14 13 11 10 9 8 8 8 7 6 5 4 3 1 2 2 3 5 4 4 5 6 7 7 7 6 5 5 6 6 5 5 5 5 4 2 1 2 2 2 3 4 5 5 5 5 7 8 9 10 10 11 13 15 16 16 17 15 14 14 14 14 14
25 22 19 18 16 14 14 15 15 15 16 17 18 17 16 16 16 16 16 17 17 16 15 13 11 9 9 9 8 8 7 6 5 3 2 1 2 1 3 5 4 4 6 6 6 7 7 6 5 5 6 6 6 6 5 5 4 2 1 2 2 2 2 4 5 5 5 6 7 7 8 10 10 12 15 16 16 16 15 14 13 14 14 15 15
20 20 18 16 15 14 14 14 14 15 16 17 18 18 17 17 17 17 17 17 17 16 16 13 11 10 9 9 8 7 6 6 5 3 2 0 1 1 3 5 4 4 6 5 4 5 6 5 5 5 6 6 7 8 6 4 3 2 1 2 2 2 2 4 6 5 5 6 6 7 8 9 9 12 17 18 17 17 15 15 15 14 15 16 17
17 18 18 16 15 15 14 13 13 15 17 18 19 19 19 19 18 18 19 18 17 17 16 14 11 10 10 9 8 7 6 5 4 3 1 0 0 1 2 3 4 5 5 5 5 5 6 5 5 5 6 6 7 9 7 4 3 2 1 1 2 3 2 3 6 5 6 6 6 6 7 9 10 13 17 18 18 17 16 16 16 16 16 17 17
16 17 18 17 16 15 15 14 14 16 19 20 22 22 20 20 19 18 19 19 18 17 16 14 12 11 10 9 7 7 6 4 3 2 1 0 1 1 2 3 4 4 4 4 5 5 5 5 5 5 5 6 7 9 7 5 3 3 1 3 2 2 1 3 7 5 6 6 5 7 8 8 11 15 18 18 18 18 17 18 17 18 18 18 18
16 16 18 18 17 16 16 15 16 17 19 20 23 23 22 22 21 20 20 19 17 16 14 13 13 11 10 9 7 7 6 4 3 2 0 0 1 1 2 3 3 3 3 4 4 5 5 5 5 4 5 6 7 8 7 5 4 3 2 2 2 3 4 2 7 5 7 9 7 8 9 8 11 16 18 18 18 18 18 19 19 19 19 18 19
17 16 18 19 18 17 18 18 18 18 18 18 20 22 22 23 21 20 20 19 18 17 14 13 13 11 10 9 7 7 5 4 3 1 0 1 2 2 2 2 3 3 3 3 4 4 4 5 5 5 5 4 5 7 8 7 7 5 3 2 1 1 2 3 5 4 7 9 8 7 9 9 10 16 20 20 19 19 20 20 20 20 20 19 19
18 18 19 20 19 19 20 20 17 16 17 18 19 20 21 21 21 20 21 21 19 18 15 14 13 11 9 8 8 7 6 4 2 1 1 1 2 1 2 3 3 4 3 3 4 4 4 4 4 5 5 4 4 7 8 9 10 8 6 3 1 2 4 6 5 2 4 7 7 7 10 10 9 17 22 21 20 20 20 20 20 19 19 18 18
18 19 20 21 19 19 21 20 16 16 16 18 21 21 20 21 24 26 26 23 20 18 15 14 13 11 10 9 8 7 6 4 2 1 1 1 2 2 2 3 3 4 4 4 4 4 5 5 4 4 5 5 5 6 7 8 10 10 8 6 4 2 3 6 5 3 2 4 6 7 11 11 9 16 22 20 20 21 20 20 19 19 19 18 18
18 19 19 20 19 20 21 20 18 18 18 19 23 23 21 23 26 27 26 22 20 18 15 13 13 12 11 10 8 7 5 4 3 1 0 1 2 2 2 3 4 4 4 5 5 5 5 4 4 4 5 7 7 7 6 6 8 10 9 7 5 4 4 4 4 4 3 4 5 6 11 10 9 17 20 19 21 22 21 21 20 20 20 20 20
19 20 20 21 22 22 22 19 17 19 19 21 23 22 21 23 25 25 23 21 18 16 15 13 13 13 12 11 9 7 6 4 3 1 1 1 2 1 3 4 4 5 5 5 6 6 4 3 5 6 6 7 7 7 8 7 6 8 9 8 6 6 7 7 5 4 4 4 4 6 10 9 9 18 21 20 22 23 22 23 22 22 21 21 22
20 21 20 22 25 23 21 20 19 19 19 20 20 20 21 22 25 24 21 19 18 17 16 15 15 13 13 12 10 8 7 5 3 1 1 2 2 1 3 4 5 6 6 6 6 5 4 4 6 7 7 8 8 8 8 8 8 7 7 6 5 4 6 7 6 5 4 3 3 6 9 7 7 15 20 20 23 25 25 25 24 23 22 22 21
20 19 18 22 26 23 19 20 21 20 18 19 18 18 20 22 25 24 20 20 21 18 15 15 16 14 13 13 11 8 7 5 2 1 1 1 1 2 4 5 5 6 6 6 5 4 5 6 7 8 8 8 8 9 8 8 8 7 6 5 4 3 3 4 5 5 4 3 3 5 7 6 5 11 17 21 23 25 26 26 26 25 24 24 23
19 18 18 20 22 22 21 21 23 23 21 20 18 17 19 23 24 23 21 21 19 16 15 15 16 15 13 13 11 9 6 4 2 1 1 1 1 3 5 6 6 6 6 6 5 4 6 7 8 8 8 8 8 9 8 8 8 7 7 8 8 7 6 4 5 5 4 4 4 5 5 5 5 9 15 20 23 25 26 26 26 26 25 26 26
Wind_Direction
189 193 192 177 163 167 170 173 170 167 163 155 158 167 172 166 162 156 148 141 138 136 139 141 138 136 129 122 121 122 125 126 122 117 115 114 116 116 116 115 113 113 115 118 120 121 121 121 118 107 90 66 51 54 70 78 82 92 100 99 97 89 78 77 79 79 78 77 77 77 78 80 81 80 80 78 78 74 70 66 61 58 45 41 48
185 189 186 178 168 166 171 174 171 169 166 159 162 170 176 172 167 160 152 146 141 141 142 143 142 139 130 126 125 126 128 127 121 117 117 118 117 116 117 117 117 118 120 121 123 125 123 121 113 100 83 58 49 62 80 84 88 93 98 101 98 93 84 82 85 84 80 75 73 76 76 74 74 73 77 76 75 71 66 61 55 54 42 34 39
184 183 181 180 171 168 172 176 174 171 168 162 166 175 179 176 172 165 156 149 144 144 144 145 143 137 130 129 130 130 132 129 122 120 120 121 119 119 121 120 120 120 120 122 126 126 121 116 107 99 81 60 52 67 83 86 92 97 101 102 98 94 89 90 91 87 80 75 75 78 73 67 70 71 75 77 74 70 63 56 50 47 37 30 26
184 179 179 178 173 171 173 178 177 174 168 164 170 179 183 179 175 169 160 152 148 147 146 145 138 132 129 133 136 136 138 133 126 125 126 127 126 126 125 124 122 120 120 121 124 120 118 111 105 103 84 69 62 71 84 89 94 100 104 103 99 95 93 95 94 92 86 82 82 76 63 54 61 65 73 79 77 71 64 56 46 37 27 20 12
183 180 178 174 173 174 175 180 180 177 171 166 172 181 185 183 178 172 165 156 152 150 147 143 135 132 131 136 142 142 143 136 130 132 134 134 133 131 128 126 124 121 123 123 122 117 111 102 104 108 103 97 86 86 93 95 98 102 106 103 99 95 94 95 95 97 93 88 82 73 59 45 53 57 62 65 70 68 59 53 41 31 22 13 6
182 181 176 171 174 176 178 182 182 180 174 169 174 184 186 184 180 175 169 161 156 152 147 142 138 135 133 136 142 148 147 139 136 137 139 138 138 135 131 130 126 126 128 127 121 109 89 82 88 98 112 122 119 109 103 102 104 108 109 105 101 96 93 92 96 96 95 91 74 63 55 43 47 52 55 51 50 53 43 39 30 22 18 10 3
182 182 175 169 174 178 179 182 184 184 178 173 178 186 186 184 181 177 173 165 161 155 149 146 141 137 133 134 141 150 151 146 141 140 141 139 142 140 137 133 130 131 128 125 105 88 80 77 86 98 113 125 132 123 113 109 109 114 112 109 104 97 94 93 92 85 86 86 65 42 45 39 42 47 48 52 46 46 39 33 25 14 10 4 354
183 183 173 166 176 179 179 183 184 187 183 177 182 189 187 184 181 178 176 169 165 159 153 148 142 138 135 135 140 150 154 152 144 143 142 140 145 144 142 136 132 135 125 117 98 86 82 83 91 103 117 126 133 129 121 116 114 115 114 114 106 98 96 93 86 79 74 66 55 33 54 28 28 38 40 53 50 48 46 36 32 23 13 4 353
183 183 171 165 177 179 179 184 185 190 188 180 185 193 190 185 181 180 178 173 169 162 156 150 144 141 139 139 142 150 158 157 150 148 141 132 139 145 143 134 130 127 120 112 96 85 81 85 94 104 117 125 131 131 127 121 117 114 116 117 107 103 97 90 78 66 58 45 30 17 48 44 16 8 22 47 47 48 48 38 36 34 27 21 15
181 181 173 169 179 179 179 183 186 192 193 184 186 196 193 186 182 180 179 177 172 163 159 153 147 145 145 146 144 149 159 163 156 154 148 130 126 137 138 130 127 124 120 110 94 81 77 82 93 105 116 123 130 131 130 124 118 110 113 114 106 103 89 80 67 46 32 24 345 351 12 68 79 338 356 25 29 37 40 39 37 35 32 30 31
181 182 173 172 179 178 180 184 187 192 196 189 188 197 195 189 183 181 182 181 175 166 162 156 151 150 151 151 150 149 154 161 161 162 159 142 123 123 128 131 132 131 124 109 94 82 78 83 93 107 117 126 131 132 136 130 123 110 104 103 94 87 69 58 63 37 12 18 344 340 332 359 44 336 342 1 7 16 22 31 30 26 25 25 27
183 184 173 173 178 178 182 185 189 193 197 194 192 196 195 191 186 183 184 184 178 170 164 159 155 153 154 154 154 153 150 154 158 160 160 152 134 121 124 136 139 135 126 110 100 92 90 93 98 110 121 132 138 143 150 148 157 125 94 73 47 43 42 32 51 22 354 7 341 356 334 330 339 317 334 344 346 356 2 7 5 3 360 3 10
185 184 175 177 179 180 183 186 191 195 198 197 195 196 194 193 190 187 187 186 181 173 167 162 158 155 155 155 156 155 150 147 147 149 153 151 140 129 130 139 142 137 128 117 108 103 105 106 113 120 129 143 153 166 178 193 230 269 293 326 339 348 355 352 16 358 335 337 328 342 326 315 309 309 324 329 330 334 337 341 342 341 339 342 350
187 183 177 180 181 181 185 188 193 196 199 200 198 197 195 195 192 189 189 188 184 177 171 163 158 156 154 157 157 154 148 144 140 142 146 146 141 136 137 140 140 139 134 127 119 115 114 114 127 136 152 168 185 201 216 231 251 272 291 305 307 318 324 332 349 337 318 319 316 318 314 311 305 311 317 318 323 323 320 320 321 321 321 325 332
190 186 179 179 183 182 186 190 195 198 199 202 202 199 196 197 194 188 189 189 187 181 172 164 158 155 154 158 157 152 145 140 137 138 140 139 139 139 140 139 138 141 139 134 130 128 124 121 132 151 185 221 244 253 259 263 268 276 286 295 301 306 306 318 328 311 309 313 310 309 311 301 299 311 315 316 321 318 316 313 312 312 310 311 313
192 190 183 179 185 185 188 192 196 199 199 203 204 202 199 199 195 189 191 191 190 181 171 163 158 155 154 157 154 147 141 137 136 135 136 134 136 137 138 139 139 142 140 139 139 137 137 138 142 160 209 257 271 282 284 285 285 286 290 293 300 303 304 310 306 302 305 303 303 304 309 299 297 309 313 314 318 316 315 311 310 309 305 304 303
191 190 186 183 184 186 190 192 196 199 200 203 205 205 202 199 194 191 192 192 190 178 169 162 157 157 154 154 150 143 139 137 136 134 134 131 132 131 132 135 136 139 142 143 144 147 154 161 186 237 281 289 289 294 294 294 293 291 292 294 298 301 304 307 307 305 295 297 303 305 305 292 294 306 310 311 313 311 310 307 306 305 303 302 300
189 187 185 185 182 183 187 188 193 196 197 200 204 206 202 196 192 190 192 193 188 175 166 162 160 158 153 151 146 142 141 139 138 136 134 132 131 129 132 135 136 141 146 151 157 165 178 194 255 294 295 300 300 299 300 298 298 298 298 298 300 303 304 307 311 302 295 302 306 307 297 287 296 305 306 307 308 306 304 303 302 301 301 299 298
188 183 180 183 180 176 180 183 186 189 191 193 195 200 200 193 191 190 193 193 184 174 166 165 162 157 152 149 146 142 142 141 140 136 136 137 136 134 137 138 139 145 148 157 169 176 224 306 310 310 298 298 298 298 301 300 302 303 303 305 307 308 307 309 309 297 299 302 301 304 290 288 301 305 304 307 306 305 303 301 301 300 298 295 293
188 183 176 179 179 174 179 184 182 184 188 188 188 194 197 188 188 190 194 192 181 174 170 169 163 156 151 149 147 143 142 143 139 135 137 137 138 137 135 134 129 129 120 95 37 19 1 355 344 328 319 317 319 317 317 314 312 309 309 312 313 316 314 311 306 302 302 297 300 300 287 293 303 302 305 306 305 305 304 303 302 300 297 294 291
188 182 176 177 179 178 181 184 181 184 186 187 187 193 198 186 186 192 193 189 180 176 173 170 163 157 154 152 152 148 148 147 139 134 136 135 135 135 126 119 98 79 40 26 15 10 3 354 347 340 338 337 334 331 329 324 321 317 315 315 317 320 317 313 313 314 309 304 305 295 291 304 307 304 305 304 304 304 304 304 302 300 298 296 293
185 179 180 180 180 182 182 183 182 185 185 186 187 193 198 185 186 194 192 187 180 177 176 172 166 162 160 159 158 154 151 146 142 142 147 144 134 129 109 90 59 35 18 13 6 4 2 357 358 353 346 344 340 340 337 330 326 326 322 321 322 318 312 314 320 323 315 315 308 299 307 315 311 309 308 306 306 305 306 306 304 303 302 299 296
182 174 183 182 182 184 183 184 184 185 184 185 187 193 196 185 188 194 190 185 178 179 179 172 167 166 167 166 163 158 152 146 150 150 138 117 91 71 42 36 21 16 11 5 3 2 359 357 358 352 347 349 348 343 338 327 323 326 326 328 323 313 316 321 326 325 318 320 308 304 317 318 315 314 311 310 309 308 309 307 305 303 302 300 297
179 176 184 184 183 184 184 186 187 186 182 184 186 192 194 187 191 191 188 185 178 180 178 172 170 172 173 168 164 161 156 154 152 140 114 76 26 13 12 14 11 13 11 2 356 355 354 348 346 347 349 351 344 332 334 328 323 326 323 323 318 316 326 326 323 320 318 320 305 306 318 316 315 314 311 311 308 307 305 303 302 300 300 298 297
177 182 187 186 183 183 186 186 188 186 182 184 184 191 194 187 191 186 183 183 178 180 177 174 173 173 173 167 167 166 158 157 153 138 116 104 316 354 1 8 12 10 9 3 350 348 348 340 338 345 348 345 336 330 333 331 329 332 324 316 318 324 327 322 321 318 319 319 303 307 317 312 312 311 309 309 306 305 303 302 301 299 299 297 298
182 185 189 189 183 183 187 187 191 187 182 184 183 193 194 188 191 183 179 183 181 180 177 175 173 172 173 166 170 170 161 162 154 139 135 172 213 320 8 17 11 2 2 356 345 341 338 333 335 338 339 339 335 332 330 326 326 329 321 313 319 326 322 321 323 318 322 320 306 310 317 312 313 312 310 309 306 306 304 303 302 301 300 300 303
185 185 188 190 182 184 187 186 193 189 183 183 184 194 196 192 196 186 178 185 184 178 174 176 177 175 171 167 169 168 165 165 157 162 183 194 181 173 74 26 3 358 357 348 341 333 330 332 334 333 333 334 330 330 329 323 320 320 318 314 319 324 322 323 323 320 326 324 311 316 322 319 321 320 318 317 313 312 309 307 306 306 307 307 309
186 185 186 190 184 184 188 186 191 189 184 185 187 194 195 193 201 193 181 184 182 175 177 181 179 175 172 173 173 168 169 169 168 194 210 209 193 191 92 23 358 350 346 346 342 330 331 332 330 330 329 330 326 321 320 319 316 317 319 315 320 324 324 326 328 331 334 333 325 327 331 328 329 329 326 325 321 319 316 315 313 313 315 314 314
187 185 185 189 184 184 187 186 189 187 187 190 191 193 192 193 199 190 185 184 178 178 182 181 177 175 176 178 179 168 165 173 183 210 218 219 219 199 60 8 339 343 341 341 338 330 335 332 329 332 329 328 324 316 318 324 319 317 321 325 332 336 341 346 346 349 344 343 338 331 333 333 333 333 331 330 326 324 321 319 318 316 316 315 314
187 185 185 186 184 184 185 186 188 187 189 192 194 194 191 194 195 185 189 185 178 185 182 178 179 179 183 183 183 169 165 177 186 211 224 217 226 353 19 335 322 339 344 339 336 330 335 333 327 330 329 326 324 319 324 337 327 324 341 346 356 2 3 7 0 2 355 347 343 334 332 333 337 339 336 337 334 331 327 323 322 318 316 313 311
188 187 183 182 183 184 184 186 188 188 188 190 195 197 192 194 194 186 189 185 183 186 178 183 185 180 192 194 189 178 172 180 186 207 223 226 241 316 326 313 331 352 358 349 339 339 345 335 328 334 339 338 333 328 336 350 341 342 2 360 16 22 12 16 8 6 2 349 348 347 340 336 341 346 343 343 343 341 337 332 328 324 322 318 315
190 188 187 193 192 184 183 185 188 188 186 190 196 199 197 197 192 186 185 188 190 182 176 189 185 180 200 200 191 182 176 184 193 205 217 229 251 285 293 312 353 5 0 350 342 350 357 338 340 355 359 358 346 341 353 356 351 360 9 7 21 27 20 20 9 3 7 359 358 358 351 345 343 345 345 347 348 345 342 340 336 334 333 329 326
190 190 200 211 208 190 183 185 189 189 184 192 199 196 200 198 192 190 187 190 188 176 180 189 181 188 204 197 187 180 181 193 199 204 211 217 235 278 301 345 9 8 355 358 355 350 356 344 354 5 2 6 353 348 5 354 354 4 9 20 22 32 29 18 13 4 1 356 2 1 353 352 347 344 345 345 347 344 341 341 339 338 336 334 335
193 203 209 214 212 198 189 185 187 191 187 192 199 195 199 196 191 196 193 188 181 173 183 188 185 198 203 195 186 185 193 197 202 203 207 205 227 289 342 11 3 8 358 9 4 341 351 356 7 13 360 3 353 350 4 349 354 359 6 25 18 32 29 15 21 1 344 344 0 4 355 354 352 348 349 346 345 343 341 340 340 339 336 337 340
205 215 218 218 215 205 196 185 186 191 188 190 197 195 199 195 190 199 198 184 176 177 186 190 193 199 200 197 190 189 196 200 205 197 193 203 251 309 18 13 2 14 357 3 8 341 352 3 15 28 18 3 352 353 356 346 355 353 12 28 13 29 19 15 10 329 342 11 7 6 359 355 351 348 351 352 347 343 342 342 340 339 336 337 340
214 219 221 221 217 209 200 188 186 190 190 192 195 194 198 194 190 203 201 184 177 183 190 193 195 196 198 199 192 190 196 202 202 184 187 220 288 328 16 9 7 19 356 0 5 343 358 13 17 27 28 7 352 358 355 347 353 357 19 21 11 28 11 15 359 328 4 23 10 11 4 355 349 346 348 350 349 345 345 345 342 339 337 337 337
217 221 222 222 218 212 206 193 188 192 196 197 195 195 195 189 190 202 200 187 183 187 193 194 194 194 197 197 195 197 198 200 195 178 182 222 316 338 6 7 9 13 5 4 359 355 11 20 14 17 29 21 355 355 359 351 355 9 17 12 23 17 5 22 1 342 15 22 14 16 10 2 355 350 347 345 349 349 348 348 345 343 342 340 340
216 219 220 221 216 211 206 193 187 193 197 198 196 193 189 186 192 200 197 190 188 191 193 192 192 195 196 198 199 199 198 196 190 180 182 229 329 357 6 6 8 6 12 12 3 5 12 18 17 7 18 27 14 5 2 355 357 3 342 1 28 3 10 31 3 339 2 14 15 13 6 6 3 358 354 349 350 351 349 351 353 354 352 348 347
213 213 211 212 204 201 204 194 185 188 194 198 194 185 184 188 194 197 196 191 192 194 192 187 190 196 197 200 203 202 200 193 186 181 176 263 340 16 5 5 15 10 15 21 14 6 5 13 17 7 8 13 15 20 14 3 0 341 313 1 16 1 16 32 11 346 356 2 4 8 5 5 2 1 5 1 357 355 354 357 3 3 359 355 353
207 206 203 201 195 197 201 193 183 184 192 196 187 180 184 190 192 195 194 193 195 195 190 186 188 196 202 204 206 205 202 192 182 175 166 280 346 39 4 5 20 21 21 26 24 9 5 11 7 8 17 5 3 15 24 24 7 331 305 336 336 349 6 29 24 4 360 359 355 2 6 7 6 3 7 7 3 1 2 2 4 4 2 359 355
201 202 200 196 194 197 195 190 185 185 191 188 183 183 186 190 193 195 197 194 194 193 190 187 188 197 204 205 207 205 201 193 175 164 171 292 46 42 5 16 27 24 30 31 26 18 11 13 6 0 10 11 4 9 26 45 15 332 289 276 307 334 359 37 30 18 12 10 358 356 3 7 9 8 7 5 3 2 5 6 4 2 1 360 356
198 198 200 196 191 193 192 189 186 189 191 184 183 187 187 191 194 197 199 195 192 196 193 188 191 200 204 205 207 201 197 192 172 172 210 30 58 22 10 37 38 30 42 39 28 25 17 12 13 3 354 6 11 11 31 53 23 346 283 204 228 284 244 23 12 22 27 19 2 351 359 5 7 9 6 3 3 3 5 6 1 357 357 357 354
197 195 198 197 191 192 192 188 187 192 194 186 184 188 191 193 193 194 196 192 191 196 194 192 196 201 205 205 204 198 194 187 178 183 202 50 25 16 34 50 52 50 51 47 36 26 19 9 9 15 1 358 7 12 28 46 45 27 322 229 218 238 192 45 3 9 10 7 10 356 356 3 4 9 7 2 4 5 4 2 358 354 353 353 352
196 194 195 194 191 192 193 192 191 192 193 188 183 189 195 194 192 192 190 190 191 192 193 195 197 200 205 204 199 195 189 183 183 170 130 358 5 32 63 70 71 66 53 49 46 29 22 13 4 23 33 14 6 15 27 42 57 61 13 327 293 242 158 36 360 358 353 359 19 9 357 2 2 6 6 4 7 7 5 2 358 354 352 352 350
197 195 194 195 194 193 195 194 190 188 189 187 183 188 194 191 190 189 187 190 193 192 192 195 195 197 200 201 197 193 188 182 173 144 127 8 12 48 76 86 84 74 69 59 48 36 33 26 16 31 46 47 27 18 26 42 53 61 59 43 22 13 14 0 346 342 343 353 18 12 0 6 3 1 5 7 11 12 8 5 2 358 357 357 354
199 196 197 199 195 192 195 191 184 187 189 188 187 188 189 188 190 190 187 190 193 190 191 194 196 194 194 198 195 190 190 180 162 137 124 25 26 57 84 96 94 80 74 64 51 49 48 37 35 45 46 50 53 37 29 34 36 45 67 82 89 77 7 352 347 346 346 359 17 6 359 10 4 359 7 13 17 19 16 15 13 11 9 6 4
199 197 196 196 193 191 192 188 186 192 194 196 196 195 194 193 194 193 189 191 193 189 190 194 194 191 189 190 189 187 187 181 179 199 9 49 46 66 98 106 98 84 71 65 64 66 63 50 52 63 55 51 60 59 51 41 27 28 43 60 73 79 56 35 14 352 342 356 20 9 0 13 5 358 12 24 26 27 25 24 24 21 19 14 11
201 200 197 197 195 191 189 187 190 195 196 201 202 199 197 194 192 193 194 194 193 190 190 192 191 192 190 184 181 185 186 193 209 250 332 73 56 63 112 111 97 85 73 68 72 75 76 71 67 69 63 59 62 63 61 61 52 36 34 36 39 37 33 46 55 28 351 336 9 10 1 11 2 359 15 29 31 33 31 30 29 26 23 17 14
206 204 201 200 193 186 189 194 198 199 197 201 200 190 186 186 189 194 197 196 195 195 194 196 197 195 192 183 177 183 188 204 231 283 349 67 55 91 127 116 100 89 83 79 78 78 82 82 76 71 65 60 60 61 58 54 55 52 45 42 39 30 22 31 45 44 21 356 5 2 359 11 3 2 19 33 32 33 32 32 31 27 25 21 17
207 203 203 202 189 184 192 197 200 199 197 197 193 186 180 180 190 197 197 195 195 194 193 200 202 193 187 183 176 181 191 206 234 317 5 47 61 141 134 117 103 95 94 91 84 86 91 85 76 69 63 59 55 55 52 46 46 49 60 69 65 65 52 27 29 35 31 18 8 1 4 21 15 5 22 36 35 32 30 30 29 27 26 26 23
206 199 201 195 180 184 196 201 201 196 194 195 192 193 187 185 194 199 196 195 196 196 198 202 198 187 183 181 175 179 189 197 212 315 331 67 114 151 136 118 107 100 101 99 94 100 96 82 71 64 57 54 52 49 45 46 49 50 66 82 84 83 84 63 42 35 27 19 18 22 19 32 41 20 22 33 34 33 33 31 29 28 28 29 28